Location: Newark
(34.6283°N, 36.0776°E)
Time: 08:02:31
(UTC+00:00)

Courier 1B Rocket - Pass Details

Date: 20 September 2019
Orbit: 920 x 1202 km, 28.2° (Epoch: 13 October)

Event Time Altitude Azimuth Distance (km) Brightness Sun altitude
Rises 18:41:51 0° 263° (W) 3,699 8.6 -37.1°
Reaches altitude 10° 18:45:44 10° 242° (WSW) 2,696 7.6 -37.8°
Enters shadow 18:46:49 13° 234° (SW) 2,500 7.3 -38.0°
